Change the Weather History Date:

Sunday, August 24, 2014

  Actual Average Record
Temperature  
Mean Temperature 55 °F -  
Max Temperature 59 °F 84 °F 98 °F (1999)
Min Temperature 50 °F 51 °F 45 °F (2007)
Degree Days  
Heating Degree Days 10    
Cooling Degree Days 0    
Growing Degree Days 5 (Base 50)    
Moisture  
Dew Point 49 °F    
Average Humidity 84    
Maximum Humidity 93    
Minimum Humidity 74    
Precipitation  
Precipitation 0.85 in 0.03 in 0.85 in (2014)
Month to date precipitation 6.96 1.10  
Year to date precipitation 12.13 9.49  
Sea Level Pressure  
Sea Level Pressure 29.76 in    
Wind  
Wind Speed 16 mph (North)    
Max Wind Speed 23 mph    
Max Gust Speed 30 mph    
Visibility 6 miles    
Events Rain    
T = Trace of Precipitation, MM = Missing Value Source: NWS Daily Summary

Daily Weather History Graph

Daily Weather History Graph

Search for Another Location

Airport or City:

Trip Planner

Search our weather history database for the weather conditions in past years. The results will help you decide how hot, cold, wet, or windy it might be!

Date:

Astronomy

Aug. 24, 2014 Rise Set
Actual Time 6:09 AM MDT 7:58 PM MDT
Civil Twilight 5:36 AM MDT 8:31 PM MDT
Nautical Twilight 4:55 AM MDT 9:12 PM MDT
Astronomical Twilight 4:10 AM MDT 9:56 PM MDT
Moon 5:22 AM MDT (8/24) 7:15 PM MDT (8/24)
Length of Visible Light 14h 55m
Length of Day
13h 49m
Waning Crescent, 1% of the Moon is Illuminated
Aug 24
Waning Crescent
Aug 25
New
Sep 2
First Quarter
Sep 8
Full
Sep 15
Last Quarter

Hourly Weather History & Observations

Time (MDT) Temp. Dew Point Humidity Pressure Visibility Wind Dir Wind Speed Gust Speed Precip Events Conditions
12:16 AM 53.1 °F 50.0 °F 89% 29.81 in 2.5 mi NE 23.0 mph 29.9 mph 0.04 in Rain Rain
12:48 AM 53.6 °F 50.0 °F 88% 29.80 in 4.0 mi NE 19.6 mph - 0.14 in Rain Rain
12:53 AM 53.1 °F 50.0 °F 89% 29.81 in 5.0 mi NE 19.6 mph 25.3 mph 0.14 in Rain Light Rain
1:20 AM 53.1 °F 50.0 °F 89% 29.79 in 2.5 mi ENE 13.8 mph 21.9 mph 0.06 in Rain Rain
1:53 AM 53.1 °F 50.0 °F 89% 29.80 in 2.0 mi NE 15.0 mph - 0.14 in Rain Rain
2:03 AM 52.0 °F 50.0 °F 93% 29.78 in 1.8 mi NE 15.0 mph - 0.05 in Rain Heavy Rain
2:14 AM 53.1 °F 50.0 °F 89% 29.77 in 2.5 mi NE 16.1 mph 23.0 mph 0.07 in Rain Rain
2:37 AM 52.0 °F 48.9 °F 89% 29.76 in 4.0 mi NNE 17.3 mph - 0.11 in Rain Rain
2:53 AM 52.0 °F 48.9 °F 89% 29.77 in 4.0 mi NNE 18.4 mph 24.2 mph 0.12 in Rain Light Rain
3:53 AM 52.0 °F 48.0 °F 86% 29.74 in 8.0 mi NNE 20.7 mph 25.3 mph 0.00 in Rain Light Rain
4:53 AM 51.1 °F 48.0 °F 89% 29.73 in 2.5 mi NNE 16.1 mph - 0.04 in Rain Rain
5:04 AM 51.1 °F 48.0 °F 89% 29.72 in 3.0 mi NNE 13.8 mph - 0.01 in Rain Rain
5:53 AM 52.0 °F 48.0 °F 86% 29.74 in 7.0 mi North 9.2 mph - 0.05 in Rain Light Rain
6:15 AM 52.0 °F 48.0 °F 86% 29.73 in 2.5 mi North 6.9 mph - 0.06 in Rain Rain
6:31 AM 52.0 °F 48.0 °F 86% 29.73 in 3.0 mi North - - 0.08 in Rain Rain
6:53 AM 52.0 °F 48.9 °F 89% 29.75 in 3.0 mi Calm Calm - 0.12 in Rain Light Rain
7:08 AM 52.0 °F 48.0 °F 86% 29.73 in 4.0 mi Calm Calm - 0.03 in Rain Rain
7:29 AM 51.1 °F 48.0 °F 89% 29.73 in 2.5 mi North 3.5 mph - 0.08 in Rain Rain
7:48 AM 51.8 °F 48.2 °F 88% 29.70 in 2.0 mi NNW 10.4 mph - 0.16 in Rain Heavy Rain
7:53 AM 51.1 °F 48.0 °F 89% 29.71 in 1.8 mi NNW 10.4 mph - 0.18 in Rain Rain
8:04 AM 52.0 °F 48.0 °F 86% 29.69 in 2.0 mi North 10.4 mph - 0.03 in Rain Rain
8:16 AM 52.0 °F 48.0 °F 86% 29.68 in 4.0 mi North 16.1 mph 26.5 mph 0.05 in Rain Rain
8:53 AM 52.0 °F 48.0 °F 86% 29.68 in 5.0 mi NNW 17.3 mph - 0.10 in Rain Rain
9:53 AM 53.1 °F 48.9 °F 86% 29.70 in 10.0 mi NNE 6.9 mph - 0.08 in Rain Light Rain
10:53 AM 55.0 °F 50.0 °F 83% 29.70 in 7.0 mi North 15.0 mph - 0.02 in Rain Light Rain
11:12 AM 55.0 °F 51.1 °F 86% 29.69 in 4.0 mi NNE 13.8 mph - 0.00 in Rain Light Rain
11:23 AM 55.0 °F 51.1 °F 86% 29.69 in 4.0 mi North 13.8 mph - 0.00 in Rain Light Rain
11:41 AM 55.9 °F 51.1 °F 84% 29.69 in 9.0 mi NNE 13.8 mph - 0.00 in   Overcast
11:50 AM 55.4 °F 51.8 °F 88% 29.69 in 6.0 mi North 12.7 mph - 0.00 in Rain Light Rain
11:53 AM 55.9 °F 51.1 °F 84% 29.70 in 5.0 mi NNE 13.8 mph - 0.00 in Rain Light Rain
12:53 PM 57.0 °F 51.1 °F 81% 29.70 in 10.0 mi NNE 9.2 mph - 0.00 in   Overcast
1:53 PM 55.9 °F 52.0 °F 87% 29.70 in 8.0 mi NNW 12.7 mph - 0.01 in   Overcast
2:17 PM 57.0 °F 52.0 °F 83% 29.70 in 10.0 mi NNW 12.7 mph - 0.00 in   Overcast
2:53 PM 57.9 °F 51.1 °F 78% 29.71 in 10.0 mi NNW 15.0 mph - 0.00 in   Overcast
3:53 PM 59.0 °F 51.1 °F 75% 29.72 in 10.0 mi NNW 19.6 mph 24.2 mph 0.00 in   Overcast
4:53 PM 57.9 °F 51.1 °F 78% 29.75 in 10.0 mi NW 20.7 mph - N/A   Overcast
5:05 PM 57.9 °F 51.1 °F 78% 29.74 in 10.0 mi NW 20.7 mph - N/A   Overcast
5:36 PM 57.0 °F 50.0 °F 77% 29.76 in 10.0 mi NNW 18.4 mph 29.9 mph N/A   Overcast
5:53 PM 57.0 °F 48.9 °F 74% 29.78 in 10.0 mi NNW 20.7 mph 29.9 mph N/A   Overcast
6:53 PM 55.0 °F 48.0 °F 77% 29.81 in 10.0 mi NW 20.7 mph 28.8 mph N/A   Overcast
7:53 PM 53.6 °F 46.4 °F 77% 29.83 in 10.0 mi NNW 19.6 mph 27.6 mph N/A   Overcast
8:53 PM 52.0 °F 46.0 °F 80% 29.88 in 10.0 mi NW 17.3 mph - N/A   Overcast
9:53 PM 52.0 °F 46.0 °F 80% 29.91 in 10.0 mi NW 15.0 mph - N/A   Overcast
10:27 PM 52.0 °F 46.0 °F 80% 29.90 in 10.0 mi NW 17.3 mph - N/A   Overcast
10:51 PM 51.8 °F 44.6 °F 76% 29.91 in 10.0 mi NW 15.0 mph 24.2 mph N/A   Overcast
11:53 PM 50.0 °F 45.0 °F 83% 29.95 in 10.0 mi NW 11.5 mph - N/A   Overcast